Content
SEND FEEDBACK

Daily
Averages
Monthly
Summary
United States of America

SOUTH LAKE TAHOE, CALIFORNIA


Home > North America > United States > California
Elevation: 6263 feet     Latitude: 38 53N     Longitude: 119 59W

WEATHER
 
SELECT A DAY
Number of Records: 177,052;   Date Range: 1/1/95 - 10/24/14
 
SHARE

PRINT THIS DATA

[ ← Previous Day ]
WEATHER ALMANAC - MAY 9, 2013
[ Next Day → ]
[ °C ]   °F
Weather ElementAverageHighLow
Temperature48.8 °F64.9 °F (2:53 pm)35.1 °F (5:53 am)
Dewpoint38 °F44.1 °F (7:53 pm)30.2 °F (6:29 am)
Humidity69.3 %93 % (7:02 am)33 % (5:53 pm)
Barometer30.15 in30.23 in (9:32 am)30.10 in (4:53 am)
Wind Speed2.1 mph8.1 mph (11:53 am)
Wind Gust16.1 mph (2:53 pm)
Weather ElementAverage
Visibility10 mi
Wind DirectionNNE (30.8 °)

Weather ElementTotal
Precipitation---
Heating Degree Days15 (Base 65)
Averaged from 26 records on May 9, 2013
WEATHER CONDITIONS BREAKOUT
WIND DIRECTION BREAKOUT
WEATHER BY HOUR - MAY 9, 2013
[ °C ]   °F
Local TimeTemperatureDewpointHumidityBarometerVisibilityWind DirectionWind SpeedGust SpeedPrecipitationEventsConditions
12:21 AM44.6 °F39.2 °F81 %30.20 in10.0 miCalmOvercast
12:53 AM43.0 °F37.9 °F82 %30.12 in10.0 miCalmOvercast
1:53 AM42.1 °F37.0 °F82 %30.12 in10.0 miCalmMostly Cloudy
2:19 AM41.0 °F35.6 °F81 %30.20 in10.0 miCalmScattered Clouds
2:53 AM39.9 °F35.1 °F83 %30.12 in10.0 miCalmPartly Cloudy
3:53 AM37.9 °F34.0 °F86 %30.11 in10.0 miCalmClear
4:53 AM37.0 °F32.0 °F82 %30.10 in10.0 miCalmClear
5:53 AM35.1 °F30.9 °F85 %30.12 in10.0 miCalmClear
6:29 AM35.6 °F30.2 °F81 %30.21 in10.0 miSouth (190°)3.5 mphPartly Cloudy
6:53 AM36.0 °F33.1 °F89 %30.15 in10.0 miCalmScattered Clouds
7:02 AM37.4 °F35.6 °F93 %30.22 in10.0 miCalmMostly Cloudy
7:53 AM42.1 °F36.0 °F79 %30.16 in10.0 miCalmOvercast
8:53 AM48.9 °F39.9 °F71 %30.15 in10.0 miENE (60°)3.5 mphOvercast
9:32 AM51.8 °F41.0 °F67 %30.23 in10.0 miCalmScattered Clouds
10:53 AM57.0 °F42.1 °F57 %30.13 in10.0 miVariable5.8 mphClear
11:53 AM59.0 °F43.0 °F55 %30.12 in10.0 miNNE (20°)8.1 mphClear
12:53 PM61.0 °F41.0 °F48 %30.12 in10.0 miVariable4.6 mphClear
1:53 PM63.0 °F39.9 °F43 %30.11 in10.0 miVariable3.5 mphPartly Cloudy
2:53 PM64.9 °F39.0 °F39 %30.10 in10.0 miVariable6.9 mph16.1 mphScattered Clouds
3:53 PM64.9 °F37.9 °F37 %30.10 in10.0 miNE (40°)8.1 mphScattered Clouds
5:53 PM64.9 °F35.1 °F33 %30.10 in10.0 miCalmClear
6:53 PM59.0 °F42.1 °F53 %30.13 in10.0 miSouth (190°)6.9 mphMostly Cloudy
7:53 PM54.0 °F44.1 °F69 %30.14 in10.0 miCalmClear
8:53 PM51.1 °F43.0 °F74 %30.16 in10.0 miCalmPartly Cloudy
9:53 PM50.0 °F42.1 °F74 %30.17 in10.0 miCalmPartly Cloudy
11:53 PM48.0 °F41.0 °F77 %30.20 in10.0 miWNW (300°)3.5 mphMostly Cloudy
Hourly data recorded from KTVL, located miles away from South Lake Tahoe, California







STORIES FROM OUR PARTNERS